Regional Weather Roundup
Issued by NWS Charleston, SC

Current Version | Previous Version | Text Only | Print | Product List | Glossary On
Versions: 1 2 3 4 5 6 7 8 9 10 11 12 13 14 15 16 17 18 19 20 21 22 23 24 25 26 27 28 29 30 31 32 33 34 35 36 37 38 39 40 41 42 43 44 45 46 47 48 49 50
000 ASUS42 KCHS 251910 RWRCHS REGIONAL WEATHER ROUNDUP NATIONAL WEATHER SERVICE CHARLESTON SC 300 PM EDT FRI JUL 25 2014 NOTE: "FAIR" INDICATES FEW OR NO CLOUDS BELOW 12,000 FEET WITH NO SIGNIFICANT WEATHER AND/OR OBSTRUCTIONS TO VISIBILITY. NOT ALL STATIONS ARE QUALITY CONTROLLED BY THE NATIONAL WEATHER SERVICE. USE DATA WITH CAUTION...ESPECIALLY DEWPOINT OBSERVATIONS. SCZ027-030-031-034>040-042>050-252000- ...SOUTH CAROLINA... CITY SKY/WX TMP DP RH WIND PRES REMARKS N CHARLESTON TSTM 77 72 84 SE7 29.99R WATERFRONT PRK N/A 84 N/A N/A S12G20 N/A FORT JOHNSON NOT AVBL MOUNT PLEASANT HVY RAIN 77 72 83 W7G22 30.02R JOHNS ISLAND PTCLDY 88 72 58 S7G18 30.00R THUNDER HX 94 PINOPOLIS N/A 79 72 78 MISG 29.89F MONCKS CORNER TSTM 77 75 94 CALM 29.99F SUMMERVILLE TSTM 73 73 100 CALM 29.97F BEAUFORT MCAS TSTM 92 72 51 W14 29.95F HX 99 BEAUFORT ARPT MOCLDY 88 77 70 S12G20 29.96F HX 100 HILTON HEAD IS MOSUNNY 88 75 66 S10 29.98F HX 97 GEORGETOWN NOT AVBL WALTERBORO MOCLDY 81 79 94 CALM 29.97F ORANGEBURG LGT RAIN 80 76 87 E6 29.98F BARNWELL FAIR 93 70 46 W7 29.97F HX 99 AIKEN FAIR 90 77 66 W5 30.01F HX 102 MANNING FAIR 86 79 79 N9 29.98F HX 99 KINGSTREE NOT AVBL COLUMBIA PTSUNNY 88 71 57 N6 29.97F HX 94 SUMTER CLOUDY 82 74 76 VRB2 29.97F FLORENCE CLOUDY 82 72 71 SE7 29.99F MYRTLE BEACH NOT AVBL N MYRTLE BEACH PTSUNNY 80 73 79 SE7 30.01F $$ GAZ063-065-086>088-099>101-113>116-118-119-134-136>141-150-252000- ...GEORGIA... CITY SKY/WX TMP DP RH WIND PRES REMARKS SAVANNAH ARPT PTSUNNY 93 71 48 SW12 29.98F HX 100 HUNTER AAF MOSUNNY 93 73 52 SW7 29.97F HX 101 FORT STEWART PTSUNNY 92 70 48 SW10 29.98F HX 98 STATESBORO NOT AVBL SYLVANIA PTCLDY 88 78 70 SW5 30.00F HX 101 CLAXTON FAIR 95 73 49 W9 29.98F HX 105 THOMSON PTSUNNY 89 78 69 CALM 30.03F HX 102 AUGUSTA-BUSH MOSUNNY 88 72 58 E5 29.96F HX 94 AUGUSTA-DANIEL MOSUNNY 91 69 48 VRB6 29.99F HX 96 SWAINSBORO MOCLDY 91 77 62 N6G13 29.99F HX 105 VIDALIA N/A 91 72 52 SW10 29.99F HX 98 ALMA MOSUNNY 94 67 41 SW9 30.00F HX 97 WAYCROSS MOSUNNY 96 74 48 W9 30.01F HX 107 JESUP NOT AVBL BRUNSWICK PTSUNNY 93 68 43 SW6 30.02F HX 97 SAINT SIMONS MOSUNNY 92 70 48 SW10 30.01F HX 97 $$ SCZ027-028-034-036>038-045-046-048>050-GAZ119-141-252000- ...LAKE AND SUPPLEMENTAL COASTAL OBSERVATIONS... STATION/POSITION TIME TEMP WIND PRES WAVE SWELL AIR SEA DIR/SP/G HT/PER HT/PER/DIR (UTC) (F) (DEG/KT/KT) (MB) (FT/S) (FT/S/D) UPR LAKE MARION NOT AVBL WINYAH BAY 1800 80 180/ 9 1015.0S LAKE MURRAY 1800 81 70/ 2/ 4 1015.2F ACE BASIN NERRS 1800 90 180/ 2 1016.0S FORT PULASKI 1900 88 160/ 7/ 13 1015.6F SAPELO ISLAND 1800 92 240/ 8 1018.0S $$ ANZ835-935-AMZ111-154-330-350-352-354-374-450-454-472-252000- ...C-MAN AND BUOY OBSERVATIONS... STATION/POSITION TIME TEMP WIND PRES WAVE SWELL AIR SEA DIR/SP/G HT/PER HT/PER/DIR (UTC) (F) (DEG/KT/KT) (MB) (FT/S) (FT/S/D) FOLLY BEACH CMAN 1800 85 190/ 14/ 15 1015.9F BUOY 41004 1900 82 83 210/ 14/ 16 1015.2F 3/ 5 2/15 BUOY 41008 1900 84 85 180/ 12/ 14 1016.3F 2/ 5 5E ST. MARYS GA 1900 86 N/A 1/ 8 FRYING PAN BUOY NOT AVBL BUOY 41025 1900 VRB 6/ 8 1017.3R 2/ 7 2/160/ 7 CAPE LOOKOUT NC 1800 77 80/ 9/ 10 1017.4R BUOY 41002 1753 78 82 260/ 10/ 14 1018.4 4/ 8 3/250/ 8 BUOY 41010 1900 84 85 200/ 8/ 10 1019.3F 2/ 8 2/140/ 8 BUOY 41012 NOT AVBL ST AUGUSTINE FL 1900 78 360/ 2/ 3 1018.9S CAPERS NEARSHORE 1800 83 180/ 16/ 19 N/A FRIPP NEARSHORE NOT AVBL $$

USA.gov is the U.S. government's official web portal to all federal, state and local government web resources and services.